Tracking 28052 objects as of 24-Sep-2023
HD Live streaming from Space Station
objects crossing your sky now

STARLINK-30224

Track STARLINK-30224 now!
10-day predictions
STARLINK-30224 is classified as:


NORAD ID: 57416
Int'l Code: 2023-102N
Perigee: 565.5 km
Apogee: 566.9 km
Inclination: 43.0 °
Period: 95.8 minutes
Semi major axis: 6937 km
RCS: Unknown
Launch date: July 20, 2023
Source: United States (US)
Launch site: AIR FORCE WESTERN TEST RANGE (AFWTR)
Your satellite tracking list
Your tracking list is empty




NASA's NSSDC Master Catalog

Two Line Element Set (TLE):
1 57416U 23102N   23266.53469718 -.00000850  00000-0 -47879-4 0  9997
2 57416  43.0009  88.9251 0001050 294.3403  65.7329 15.02540946 11139
Source of the keplerian elements: AFSPC